User: anonymous   Login
Location: Dompnac
(44.5644°N, 4.1026°E)
Time: 19:09:27
(UTC+00:00)
Language:

SJ-11-01 - Orbit

View from above orbital plane
View from above orbital plane
View from above satellite
View from above satellite

Ground track
Ground track

The orbit data is extracted from the following two-line orbital elements,

1 36088U 09061A   20331.27360056  .00000086  00000-0  27039-4 0  9998
2 36088  97.9761 358.3143 0010234 291.3270  68.6842 14.60184552588222
Epoch (UTC): 26 November 2020 06:33:59
Eccentricity: 0.0010234
inclination: 97.9761°
perigee height: 685 km
apogee height: 700 km
right ascension of ascending node: 358.3143°
argument of perigee: 291.3270°
revolutions per day: 14.60184552
mean anomaly at epoch: 68.6842°
orbit number at epoch: 58822

The dashed part of the orbit path shows where the satellite is in the earth's shadow,  

DLR